GPS BIII-1 (43873 NORAD) Tracking and Keplerian Element Data

This shows tracking and keplerian element data for the satellite.

Feedback or suggestion? Click here.




ElementValue
Catalog43873
NameGPS BIII-1
Epoch Orbit2889
Epoch Day323.99747907
Epoch Year2022
RAAN143.7544
Inclination55.1197
Eccentricity0.0021798
Argument of Perigee187.1608
Mean Anonmoly4.8609
Mean Motion2.00556388
Decay Rate1.17E-06
L11 43873U 18109A 22323.99747907 .00000117 00000+0 00000+0 0 9995
L22 43873 55.1197 143.7544 0021798 187.1608 4.8609 2.00556388 28892



Live tracking and technical data element details for GPS BIII-1 (NORAD 43873). GPS BIII-1 can be tracked NOW for your location showing map with azimuth and elevation plus other details from your city location.







IsCatalogInMostPopularTable: catalog: 43873, numindb: 1238
Update: records affected: 1



GetName: 43873 GPS BIII-1

Hit Count: updated at: Sun, 04 Dec 2022 22:48:51 GMT